Main page
METAR-TAF:

METAR-TAF

Airports :

Abu Musa, Iran

latitude: 25-52-33N, longitude: 055-02-01E, elevation: 7 m

Current weather observation

The report was made 13 minutes ago, at 08:00 UTC
Wind 12 kt from the West
Temperature 32°C
Humidity 67%
Pressure 999 hPa
Visibility: 6000 m

METAR: OIBA 250800Z 28012KT 6000 NSC 32/25 Q0999

Time: 12:43 (08:13 UTC)


TAF: missing

Weather observations and forecasts of more than 4000 airports (METAR and TAF reports).

The available stations are represented by yellow and red dots on the map.

Hover mouse over dot to see the name of the station.

Then click to see weather observations and forecasts.

To change the map : click on the green buttons with a black cross to zoom in, on the green button with a dash to zoom out, or on the green arrows for adjacent maps.


METAR-TAF: